Back to catalog

STARLINK-32224

AliveCommunicationsVLEO
NORAD 60941·PAYLOAD·🇺🇸 United States

Launched Aug 31, 2024 from Vandenberg Space Force Base

Loading…

Next Passes (next 24 hours)

TLE

FreshSource: CelesTrak SupGP

Epoch: Sep 14, 2026, 14:52 UTC

1 60941C 24155T   26257.61993056  .00006646  00000+0  19644-3 0  2573
2 60941  53.1603 329.2492 0001220  74.0903  57.0810 15.34372780    11

Track STARLINK-32224 in real time with AllMySat

Download on the App Store